Year,Month,Day,Hour,Minute,Value (Times are PST for temperature in C)
2017,09,02,00,00,15.80
2017,09,02,00,01,15.80
2017,09,02,00,02,15.80
2017,09,02,00,03,15.80
2017,09,02,00,04,15.80
2017,09,02,00,05,15.80
2017,09,02,00,06,15.80
2017,09,02,00,07,15.70
2017,09,02,00,08,15.70
2017,09,02,00,09,15.70
2017,09,02,00,10,15.70
2017,09,02,00,11,15.70
2017,09,02,00,12,15.70
2017,09,02,00,13,15.60
2017,09,02,00,14,15.60
2017,09,02,00,15,15.60
2017,09,02,00,16,15.60
2017,09,02,00,17,15.60
2017,09,02,00,18,15.60
2017,09,02,00,19,15.60
2017,09,02,00,20,15.50
2017,09,02,00,21,15.50
2017,09,02,00,22,15.50
2017,09,02,00,23,15.50
2017,09,02,00,24,15.40
2017,09,02,00,25,15.40
2017,09,02,00,26,15.40
2017,09,02,00,27,15.40
2017,09,02,00,28,15.40
2017,09,02,00,29,15.40
2017,09,02,00,30,15.40
2017,09,02,00,31,15.40
2017,09,02,00,32,15.40
2017,09,02,00,33,15.40
2017,09,02,00,34,15.40
2017,09,02,00,35,15.40
2017,09,02,00,36,15.40
2017,09,02,00,37,15.40
2017,09,02,00,38,15.40
2017,09,02,00,39,15.40
2017,09,02,00,40,15.40
2017,09,02,00,41,15.40
2017,09,02,00,42,15.30
2017,09,02,00,43,15.30
2017,09,02,00,44,15.30
2017,09,02,00,45,15.30
2017,09,02,00,46,15.30
2017,09,02,00,47,15.30
2017,09,02,00,48,15.30
2017,09,02,00,49,15.30
2017,09,02,00,50,15.30
2017,09,02,00,51,15.20
2017,09,02,00,52,15.20
2017,09,02,00,53,15.20
2017,09,02,00,54,15.20
2017,09,02,00,55,15.20
2017,09,02,00,56,15.20
2017,09,02,00,57,15.20
2017,09,02,00,58,15.20
2017,09,02,00,59,15.10
2017,09,02,01,00,15.10
2017,09,02,01,01,15.10
2017,09,02,01,02,15.10
2017,09,02,01,03,15.10
2017,09,02,01,04,15.10
2017,09,02,01,05,15.10
2017,09,02,01,06,15.10
2017,09,02,01,07,15.10
2017,09,02,01,08,15.10
2017,09,02,01,09,15.10
2017,09,02,01,10,15.10
2017,09,02,01,11,15.10
2017,09,02,01,12,15.10
2017,09,02,01,13,15.10
2017,09,02,01,14,15.10
2017,09,02,01,15,15.10
2017,09,02,01,16,15.10
2017,09,02,01,17,15.10
2017,09,02,01,18,15.10
2017,09,02,01,19,15.00
2017,09,02,01,20,15.00
2017,09,02,01,21,15.00
2017,09,02,01,22,14.90
2017,09,02,01,23,14.90
2017,09,02,01,24,14.90
2017,09,02,01,25,14.90
2017,09,02,01,26,14.90
2017,09,02,01,27,14.90
2017,09,02,01,28,14.90
2017,09,02,01,29,14.90
2017,09,02,01,30,15.00
2017,09,02,01,31,15.00
2017,09,02,01,32,15.00
2017,09,02,01,33,15.10
2017,09,02,01,34,15.10
2017,09,02,01,35,15.10
2017,09,02,01,36,15.00
2017,09,02,01,37,15.00
2017,09,02,01,38,15.00
2017,09,02,01,39,14.90
2017,09,02,01,40,14.90
2017,09,02,01,41,14.90
2017,09,02,01,42,14.90
2017,09,02,01,43,14.80
2017,09,02,01,44,14.80
2017,09,02,01,45,14.80
2017,09,02,01,46,14.80
2017,09,02,01,47,14.80
2017,09,02,01,48,14.80
2017,09,02,01,49,14.80
2017,09,02,01,50,14.80
2017,09,02,01,51,14.80
2017,09,02,01,52,14.80
2017,09,02,01,53,14.70
2017,09,02,01,54,14.70
2017,09,02,01,55,14.70
2017,09,02,01,56,14.70
2017,09,02,01,57,14.70
2017,09,02,01,58,14.70
2017,09,02,01,59,14.70
2017,09,02,02,00,14.70
2017,09,02,02,01,14.70
2017,09,02,02,02,14.70
2017,09,02,02,03,14.70
2017,09,02,02,04,14.70
2017,09,02,02,05,14.60
2017,09,02,02,06,14.60
2017,09,02,02,07,14.60
2017,09,02,02,08,14.60
2017,09,02,02,09,14.60
2017,09,02,02,10,14.60
2017,09,02,02,11,14.60
2017,09,02,02,12,14.60
2017,09,02,02,13,14.60
2017,09,02,02,14,14.60
2017,09,02,02,15,14.60
2017,09,02,02,16,14.60
2017,09,02,02,17,14.60
2017,09,02,02,18,14.60
2017,09,02,02,19,14.60
2017,09,02,02,20,14.60
2017,09,02,02,21,14.60
2017,09,02,02,22,14.60
2017,09,02,02,23,14.60
2017,09,02,02,24,14.60
2017,09,02,02,25,14.60
2017,09,02,02,26,14.60
2017,09,02,02,27,14.60
2017,09,02,02,28,14.60
2017,09,02,02,29,14.50
2017,09,02,02,30,14.50
2017,09,02,02,31,14.50
2017,09,02,02,32,14.50
2017,09,02,02,33,14.50
2017,09,02,02,34,14.50
2017,09,02,02,35,14.40
2017,09,02,02,36,14.40
2017,09,02,02,37,14.40
2017,09,02,02,38,14.40
2017,09,02,02,39,14.40
2017,09,02,02,40,14.40
2017,09,02,02,41,14.40
2017,09,02,02,42,14.40
2017,09,02,02,43,14.40
2017,09,02,02,44,14.40
2017,09,02,02,45,14.50
2017,09,02,02,46,14.50
2017,09,02,02,47,14.40
2017,09,02,02,48,14.40
2017,09,02,02,49,14.40
2017,09,02,02,50,14.40
2017,09,02,02,51,14.40
2017,09,02,02,52,14.40
2017,09,02,02,53,14.40
2017,09,02,02,54,14.40
2017,09,02,02,55,14.40
2017,09,02,02,56,14.40
2017,09,02,02,57,14.40
2017,09,02,02,58,14.40
2017,09,02,02,59,14.40
2017,09,02,03,00,14.40
2017,09,02,03,01,14.40
2017,09,02,03,02,14.40
2017,09,02,03,03,14.40
2017,09,02,03,04,14.40
2017,09,02,03,05,14.40
2017,09,02,03,06,14.40
2017,09,02,03,07,14.40
2017,09,02,03,08,14.40
2017,09,02,03,09,14.40
2017,09,02,03,10,14.40
2017,09,02,03,11,14.40
2017,09,02,03,12,14.40
2017,09,02,03,13,14.40
2017,09,02,03,14,14.40
2017,09,02,03,15,14.40
2017,09,02,03,16,14.40
2017,09,02,03,17,14.40
2017,09,02,03,18,14.30
2017,09,02,03,19,14.30
2017,09,02,03,20,14.30
2017,09,02,03,21,14.30
2017,09,02,03,22,14.30
2017,09,02,03,23,14.30
2017,09,02,03,24,14.30
2017,09,02,03,25,14.30
2017,09,02,03,26,14.30
2017,09,02,03,27,14.30
2017,09,02,03,28,14.30
2017,09,02,03,29,14.30
2017,09,02,03,30,14.30
2017,09,02,03,31,14.30
2017,09,02,03,32,14.30
2017,09,02,03,33,14.30
2017,09,02,03,34,14.30
2017,09,02,03,35,14.20
2017,09,02,03,36,14.20
2017,09,02,03,37,14.20
2017,09,02,03,38,14.20
2017,09,02,03,39,14.20
2017,09,02,03,40,14.20
2017,09,02,03,41,14.20
2017,09,02,03,42,14.20
2017,09,02,03,43,14.20
2017,09,02,03,44,14.20
2017,09,02,03,45,14.20
2017,09,02,03,46,14.20
2017,09,02,03,47,14.20
2017,09,02,03,48,14.20
2017,09,02,03,49,14.20
2017,09,02,03,50,14.20
2017,09,02,03,51,14.20
2017,09,02,03,52,14.20
2017,09,02,03,53,14.20
2017,09,02,03,54,14.20
2017,09,02,03,55,14.20
2017,09,02,03,56,14.20
2017,09,02,03,57,14.20
2017,09,02,03,58,14.20
2017,09,02,03,59,14.20
2017,09,02,04,00,14.20
2017,09,02,04,01,14.20
2017,09,02,04,02,14.20
2017,09,02,04,03,14.20
2017,09,02,04,04,14.20
2017,09,02,04,05,14.20
2017,09,02,04,06,14.20
2017,09,02,04,07,14.20
2017,09,02,04,08,14.20
2017,09,02,04,09,14.20
2017,09,02,04,10,14.20
2017,09,02,04,11,14.10
2017,09,02,04,12,14.10
2017,09,02,04,13,14.10
2017,09,02,04,14,14.10
2017,09,02,04,15,14.10
2017,09,02,04,16,14.10
2017,09,02,04,17,14.10
2017,09,02,04,18,14.10
2017,09,02,04,19,14.10
2017,09,02,04,20,14.10
2017,09,02,04,21,14.10
2017,09,02,04,22,14.10
2017,09,02,04,23,14.10
2017,09,02,04,24,14.10
2017,09,02,04,25,14.10
2017,09,02,04,26,14.10
2017,09,02,04,27,14.10
2017,09,02,04,28,14.10
2017,09,02,04,29,14.10
2017,09,02,04,30,14.10
2017,09,02,04,31,14.10
2017,09,02,04,32,14.10
2017,09,02,04,33,14.10
2017,09,02,04,34,14.10
2017,09,02,04,35,14.10
2017,09,02,04,36,14.10
2017,09,02,04,37,14.10
2017,09,02,04,38,14.00
2017,09,02,04,39,14.00
2017,09,02,04,40,14.00
2017,09,02,04,41,14.00
2017,09,02,04,42,13.90
2017,09,02,04,43,13.90
2017,09,02,04,44,13.90
2017,09,02,04,45,13.90
2017,09,02,04,46,13.90
2017,09,02,04,47,13.80
2017,09,02,04,48,13.80
2017,09,02,04,49,13.80
2017,09,02,04,50,13.80
2017,09,02,04,51,13.80
2017,09,02,04,52,13.80
2017,09,02,04,53,13.80
2017,09,02,04,54,13.80
2017,09,02,04,55,13.80
2017,09,02,04,56,13.80
2017,09,02,04,57,13.80
2017,09,02,04,58,13.80
2017,09,02,04,59,13.80
2017,09,02,05,00,13.80
2017,09,02,05,01,13.80
2017,09,02,05,02,13.80
2017,09,02,05,03,13.80
2017,09,02,05,04,13.80
2017,09,02,05,05,13.80
2017,09,02,05,06,13.80
2017,09,02,05,07,13.80
2017,09,02,05,08,13.80
2017,09,02,05,09,13.80
2017,09,02,05,10,13.80
2017,09,02,05,11,13.80
2017,09,02,05,12,13.80
2017,09,02,05,13,13.80
2017,09,02,05,14,13.80
2017,09,02,05,15,13.80
2017,09,02,05,16,13.80
2017,09,02,05,17,13.80
2017,09,02,05,18,13.80
2017,09,02,05,19,13.80
2017,09,02,05,20,13.80
2017,09,02,05,21,13.80
2017,09,02,05,22,13.80
2017,09,02,05,23,13.80
2017,09,02,05,24,13.70
2017,09,02,05,25,13.70
2017,09,02,05,26,13.70
2017,09,02,05,27,13.70
2017,09,02,05,28,13.70
2017,09,02,05,29,13.70
2017,09,02,05,30,13.70
2017,09,02,05,31,13.70
2017,09,02,05,32,13.70
2017,09,02,05,33,13.70
2017,09,02,05,34,13.70
2017,09,02,05,35,13.70
2017,09,02,05,36,13.70
2017,09,02,05,37,13.70
2017,09,02,05,38,13.70
2017,09,02,05,39,13.70
2017,09,02,05,40,13.70
2017,09,02,05,41,13.60
2017,09,02,05,42,13.60
2017,09,02,05,43,13.60
2017,09,02,05,44,13.60
2017,09,02,05,45,13.60
2017,09,02,05,46,13.60
2017,09,02,05,47,13.60
2017,09,02,05,48,13.60
2017,09,02,05,49,13.70
2017,09,02,05,50,13.70
2017,09,02,05,51,13.70
2017,09,02,05,52,13.70
2017,09,02,05,53,13.70
2017,09,02,05,54,13.70
2017,09,02,05,55,13.70
2017,09,02,05,56,13.70
2017,09,02,05,57,13.70
2017,09,02,05,58,13.70
2017,09,02,05,59,13.70
2017,09,02,06,00,13.70
2017,09,02,06,01,13.70
2017,09,02,06,02,13.60
2017,09,02,06,03,13.60
2017,09,02,06,04,13.60
2017,09,02,06,05,13.60
2017,09,02,06,06,13.50
2017,09,02,06,07,13.50
2017,09,02,06,08,13.50
2017,09,02,06,09,13.50
2017,09,02,06,10,13.50
2017,09,02,06,11,13.40
2017,09,02,06,12,13.40
2017,09,02,06,13,13.40
2017,09,02,06,14,13.40
2017,09,02,06,15,13.40
2017,09,02,06,16,13.40
2017,09,02,06,17,13.40
2017,09,02,06,18,13.40
2017,09,02,06,19,13.30
2017,09,02,06,20,13.30
2017,09,02,06,21,13.30
2017,09,02,06,22,13.30
2017,09,02,06,23,13.30
2017,09,02,06,24,13.30
2017,09,02,06,25,13.30
2017,09,02,06,26,13.30
2017,09,02,06,27,13.30
2017,09,02,06,28,13.30
2017,09,02,06,29,13.30
2017,09,02,06,30,13.40
2017,09,02,06,31,13.40
2017,09,02,06,32,13.40
2017,09,02,06,33,13.40
2017,09,02,06,34,13.40
2017,09,02,06,35,13.40
2017,09,02,06,36,13.40
2017,09,02,06,37,13.30
2017,09,02,06,38,13.30
2017,09,02,06,39,13.30
2017,09,02,06,40,13.30
2017,09,02,06,41,13.30
2017,09,02,06,42,13.30
2017,09,02,06,43,13.30
2017,09,02,06,44,13.30
2017,09,02,06,45,13.30
2017,09,02,06,46,13.30
2017,09,02,06,47,13.30
2017,09,02,06,48,13.30
2017,09,02,06,49,13.30
2017,09,02,06,50,13.30
2017,09,02,06,51,13.30
2017,09,02,06,52,13.30
2017,09,02,06,53,13.40
2017,09,02,06,54,13.40
2017,09,02,06,55,13.40
2017,09,02,06,56,13.40
2017,09,02,06,57,13.40
2017,09,02,06,58,13.40
2017,09,02,06,59,13.30
2017,09,02,07,00,13.30
2017,09,02,07,01,13.30
2017,09,02,07,02,13.30
2017,09,02,07,03,13.30
2017,09,02,07,04,13.30
2017,09,02,07,05,13.40
2017,09,02,07,06,13.40
2017,09,02,07,07,13.40
2017,09,02,07,08,13.40
2017,09,02,07,09,13.50
2017,09,02,07,10,13.50
2017,09,02,07,11,13.60
2017,09,02,07,12,13.60
2017,09,02,07,13,13.60
2017,09,02,07,14,13.60
2017,09,02,07,15,13.60
2017,09,02,07,16,13.60
2017,09,02,07,17,13.60
2017,09,02,07,18,13.60
2017,09,02,07,19,13.60
2017,09,02,07,20,13.60
2017,09,02,07,21,13.60
2017,09,02,07,22,13.70
2017,09,02,07,23,13.70
2017,09,02,07,24,13.70
2017,09,02,07,25,13.70
2017,09,02,07,26,13.70
2017,09,02,07,27,13.80
2017,09,02,07,28,13.80
2017,09,02,07,29,13.80
2017,09,02,07,30,13.80
2017,09,02,07,31,13.80
2017,09,02,07,32,13.90
2017,09,02,07,33,13.90
2017,09,02,07,34,13.90
2017,09,02,07,35,14.00
2017,09,02,07,36,14.00
2017,09,02,07,37,14.00
2017,09,02,07,38,14.10
2017,09,02,07,39,14.10
2017,09,02,07,40,14.20
2017,09,02,07,41,14.20
2017,09,02,07,42,14.30
2017,09,02,07,43,14.30
2017,09,02,07,44,14.30
2017,09,02,07,45,14.40
2017,09,02,07,46,14.40
2017,09,02,07,47,14.50
2017,09,02,07,48,14.50
2017,09,02,07,49,14.60
2017,09,02,07,50,14.60
2017,09,02,07,51,14.70
2017,09,02,07,52,14.70
2017,09,02,07,53,14.80
2017,09,02,07,54,14.90
2017,09,02,07,55,15.00
2017,09,02,07,56,15.10
2017,09,02,07,57,15.20
2017,09,02,07,58,15.30
2017,09,02,07,59,15.50
2017,09,02,08,00,15.70
2017,09,02,08,01,15.90
2017,09,02,08,02,16.10
2017,09,02,08,03,16.30
2017,09,02,08,04,16.50
2017,09,02,08,05,16.60
2017,09,02,08,06,16.80
2017,09,02,08,07,16.90
2017,09,02,08,08,17.10
2017,09,02,08,09,17.20
2017,09,02,08,10,17.30
2017,09,02,08,11,17.30
2017,09,02,08,12,17.40
2017,09,02,08,13,17.50
2017,09,02,08,14,17.60
2017,09,02,08,15,17.70
2017,09,02,08,16,17.70
2017,09,02,08,17,17.80
2017,09,02,08,18,17.90
2017,09,02,08,19,18.00
2017,09,02,08,20,18.10
2017,09,02,08,21,18.20
2017,09,02,08,22,18.20
2017,09,02,08,23,18.30
2017,09,02,08,24,18.30
2017,09,02,08,25,18.40
2017,09,02,08,26,18.50
2017,09,02,08,27,18.60
2017,09,02,08,28,18.70
2017,09,02,08,29,18.70
2017,09,02,08,30,18.80
2017,09,02,08,31,18.90
2017,09,02,08,32,19.00
2017,09,02,08,33,19.00
2017,09,02,08,34,19.10
2017,09,02,08,35,19.20
2017,09,02,08,36,19.30
2017,09,02,08,37,19.30
2017,09,02,08,38,19.40
2017,09,02,08,39,19.50
2017,09,02,08,40,19.50
2017,09,02,08,41,19.60
2017,09,02,08,42,19.70
2017,09,02,08,43,19.70
2017,09,02,08,44,19.80
2017,09,02,08,45,19.80
2017,09,02,08,46,19.90
2017,09,02,08,47,19.90
2017,09,02,08,48,20.00
2017,09,02,08,49,20.00
2017,09,02,08,50,20.10
2017,09,02,08,51,20.10
2017,09,02,08,52,20.20
2017,09,02,08,53,20.30
2017,09,02,08,54,20.30
2017,09,02,08,55,20.40
2017,09,02,08,56,20.40
2017,09,02,08,57,20.50
2017,09,02,08,58,20.60
2017,09,02,08,59,20.60
2017,09,02,09,00,20.70
2017,09,02,09,01,20.80
2017,09,02,09,02,20.80
2017,09,02,09,03,20.90
2017,09,02,09,04,21.00
2017,09,02,09,05,21.00
2017,09,02,09,06,21.10
2017,09,02,09,07,21.20
2017,09,02,09,08,21.30
2017,09,02,09,09,21.40
2017,09,02,09,10,21.50
2017,09,02,09,11,21.60
2017,09,02,09,12,21.70
2017,09,02,09,13,21.80
2017,09,02,09,14,21.80
2017,09,02,09,15,21.80
2017,09,02,09,16,21.80
2017,09,02,09,17,21.80
2017,09,02,09,18,21.80
2017,09,02,09,19,21.90
2017,09,02,09,20,21.90
2017,09,02,09,21,22.00
2017,09,02,09,22,22.00
2017,09,02,09,23,22.10
2017,09,02,09,24,22.10
2017,09,02,09,25,22.10
2017,09,02,09,26,22.20
2017,09,02,09,27,22.20
2017,09,02,09,28,22.20
2017,09,02,09,29,22.20
2017,09,02,09,30,22.20
2017,09,02,09,31,22.20
2017,09,02,09,32,22.20
2017,09,02,09,33,22.20
2017,09,02,09,34,22.20
2017,09,02,09,35,22.20
2017,09,02,09,36,22.20
2017,09,02,09,37,22.10
2017,09,02,09,38,22.10
2017,09,02,09,39,22.10
2017,09,02,09,40,22.10
2017,09,02,09,41,22.00
2017,09,02,09,42,22.10
2017,09,02,09,43,22.10
2017,09,02,09,44,22.10
2017,09,02,09,45,22.10
2017,09,02,09,46,22.00
2017,09,02,09,47,22.00
2017,09,02,09,48,22.00
2017,09,02,09,49,22.10
2017,09,02,09,50,22.10
2017,09,02,09,51,22.20
2017,09,02,09,52,22.20
2017,09,02,09,53,22.30
2017,09,02,09,54,22.40
2017,09,02,09,55,22.40
2017,09,02,09,56,22.50
2017,09,02,09,57,22.50
2017,09,02,09,58,22.60
2017,09,02,09,59,22.60
2017,09,02,10,00,22.70
2017,09,02,10,01,22.70
2017,09,02,10,02,22.80
2017,09,02,10,03,22.80
2017,09,02,10,04,22.90
2017,09,02,10,05,22.90
2017,09,02,10,06,22.80
2017,09,02,10,07,22.80
2017,09,02,10,08,22.80
2017,09,02,10,09,22.70
2017,09,02,10,10,22.70
2017,09,02,10,11,22.70
2017,09,02,10,12,22.70
2017,09,02,10,13,22.70
2017,09,02,10,14,22.70
2017,09,02,10,15,22.70
2017,09,02,10,16,22.70
2017,09,02,10,17,22.70
2017,09,02,10,18,22.70
2017,09,02,10,19,22.70
2017,09,02,10,20,22.70
2017,09,02,10,21,22.70
2017,09,02,10,22,22.70
2017,09,02,10,23,22.80
2017,09,02,10,24,22.80
2017,09,02,10,25,22.80
2017,09,02,10,26,22.80
2017,09,02,10,27,22.90
2017,09,02,10,28,22.90
2017,09,02,10,29,23.00
2017,09,02,10,30,23.10
2017,09,02,10,31,23.20
2017,09,02,10,32,23.20
2017,09,02,10,33,23.30
2017,09,02,10,34,23.40
2017,09,02,10,35,23.40
2017,09,02,10,36,23.40
2017,09,02,10,37,23.50
2017,09,02,10,38,23.40
2017,09,02,10,39,23.40
2017,09,02,10,40,23.30
2017,09,02,10,41,23.30
2017,09,02,10,42,23.30
2017,09,02,10,43,23.30
2017,09,02,10,44,23.30
2017,09,02,10,45,23.30
2017,09,02,10,46,23.30
2017,09,02,10,47,23.30
2017,09,02,10,48,23.20
2017,09,02,10,49,23.20
2017,09,02,10,50,23.20
2017,09,02,10,51,23.20
2017,09,02,10,52,23.20
2017,09,02,10,53,23.20
2017,09,02,10,54,23.30
2017,09,02,10,55,23.40
2017,09,02,10,56,23.50
2017,09,02,10,57,23.60
2017,09,02,10,58,23.60
2017,09,02,10,59,23.70
2017,09,02,11,00,23.80
2017,09,02,11,01,23.70
2017,09,02,11,02,23.80
2017,09,02,11,03,23.80
2017,09,02,11,04,23.80
2017,09,02,11,05,23.90
2017,09,02,11,06,24.00
2017,09,02,11,07,24.10
2017,09,02,11,08,24.20
2017,09,02,11,09,24.20
2017,09,02,11,10,24.20
2017,09,02,11,11,24.20
2017,09,02,11,12,24.20
2017,09,02,11,13,24.20
2017,09,02,11,14,24.30
2017,09,02,11,15,24.40
2017,09,02,11,16,24.50
2017,09,02,11,17,24.60
2017,09,02,11,18,24.70
2017,09,02,11,19,24.80
2017,09,02,11,20,24.80
2017,09,02,11,21,24.90
2017,09,02,11,22,25.00
2017,09,02,11,23,25.10
2017,09,02,11,24,25.20
2017,09,02,11,25,25.20
2017,09,02,11,26,25.20
2017,09,02,11,27,25.20
2017,09,02,11,28,25.20
2017,09,02,11,29,25.20
2017,09,02,11,30,25.10
2017,09,02,11,31,25.10
2017,09,02,11,32,25.10
2017,09,02,11,33,25.10
2017,09,02,11,34,25.10
2017,09,02,11,35,25.00
2017,09,02,11,36,25.00
2017,09,02,11,37,25.00
2017,09,02,11,38,25.10
2017,09,02,11,39,25.10
2017,09,02,11,40,25.00
2017,09,02,11,41,24.90
2017,09,02,11,42,24.70
2017,09,02,11,43,24.70
2017,09,02,11,44,24.40
2017,09,02,11,45,24.40
2017,09,02,11,46,24.30
2017,09,02,11,47,24.40
2017,09,02,11,48,24.50
2017,09,02,11,49,24.50
2017,09,02,11,50,24.60
2017,09,02,11,51,24.60
2017,09,02,11,52,24.70
2017,09,02,11,53,24.70
2017,09,02,11,54,24.80
2017,09,02,11,55,24.80
2017,09,02,11,56,24.80
2017,09,02,11,57,24.70
2017,09,02,11,58,24.70
2017,09,02,11,59,24.70
2017,09,02,12,00,24.70
2017,09,02,12,01,24.70
2017,09,02,12,02,24.60
2017,09,02,12,03,24.60
2017,09,02,12,04,24.60
2017,09,02,12,05,24.50
2017,09,02,12,06,24.50
2017,09,02,12,07,24.50
2017,09,02,12,08,24.50
2017,09,02,12,09,24.50
2017,09,02,12,10,24.50
2017,09,02,12,11,24.50
2017,09,02,12,12,24.50
2017,09,02,12,13,24.50
2017,09,02,12,14,24.40
2017,09,02,12,15,24.40
2017,09,02,12,16,24.50
2017,09,02,12,17,24.50
2017,09,02,12,18,24.60
2017,09,02,12,19,24.70
2017,09,02,12,20,24.70
2017,09,02,12,21,24.70
2017,09,02,12,22,24.80
2017,09,02,12,23,24.80
2017,09,02,12,24,24.80
2017,09,02,12,25,24.80
2017,09,02,12,26,24.80
2017,09,02,12,27,24.80
2017,09,02,12,28,24.80
2017,09,02,12,29,24.90
2017,09,02,12,30,24.90
2017,09,02,12,31,24.90
2017,09,02,12,32,24.90
2017,09,02,12,33,24.90
2017,09,02,12,34,24.90
2017,09,02,12,35,25.00
2017,09,02,12,36,25.00
2017,09,02,12,37,25.10
2017,09,02,12,38,25.00
2017,09,02,12,39,25.00
2017,09,02,12,40,25.00
2017,09,02,12,41,24.90
2017,09,02,12,42,24.80
2017,09,02,12,43,24.80
2017,09,02,12,44,24.80
2017,09,02,12,45,24.70
2017,09,02,12,46,24.70
2017,09,02,12,47,24.70
2017,09,02,12,48,24.70
2017,09,02,12,49,24.60
2017,09,02,12,50,24.60
2017,09,02,12,51,24.60
2017,09,02,12,52,24.50
2017,09,02,12,53,24.40
2017,09,02,12,54,24.30
2017,09,02,12,55,24.20
2017,09,02,12,56,24.20
2017,09,02,12,57,24.20
2017,09,02,12,58,24.20
2017,09,02,12,59,24.20
2017,09,02,13,00,24.20
2017,09,02,13,01,24.20
2017,09,02,13,02,24.30
2017,09,02,13,03,24.20
2017,09,02,13,04,24.10
2017,09,02,13,05,24.00
2017,09,02,13,06,23.90
2017,09,02,13,07,23.90
2017,09,02,13,08,23.90
2017,09,02,13,09,23.80
2017,09,02,13,10,23.80
2017,09,02,13,11,23.80
2017,09,02,13,12,23.70
2017,09,02,13,13,23.60
2017,09,02,13,14,23.50
2017,09,02,13,15,23.40
2017,09,02,13,16,23.30
2017,09,02,13,17,23.10
2017,09,02,13,18,23.10
2017,09,02,13,19,23.10
2017,09,02,13,20,23.10
2017,09,02,13,21,23.20
2017,09,02,13,22,23.30
2017,09,02,13,23,23.40
2017,09,02,13,24,23.50
2017,09,02,13,25,23.60
2017,09,02,13,26,23.70
2017,09,02,13,27,23.80
2017,09,02,13,28,23.90
2017,09,02,13,29,24.10
2017,09,02,13,30,24.20
2017,09,02,13,31,24.40
2017,09,02,13,32,24.50
2017,09,02,13,33,24.70
2017,09,02,13,34,24.90
2017,09,02,13,35,25.10
2017,09,02,13,36,25.30
2017,09,02,13,37,25.40
2017,09,02,13,38,25.50
2017,09,02,13,39,25.60
2017,09,02,13,40,25.60
2017,09,02,13,41,25.60
2017,09,02,13,42,25.60
2017,09,02,13,43,25.50
2017,09,02,13,44,25.40
2017,09,02,13,45,25.40
2017,09,02,13,46,25.40
2017,09,02,13,47,25.40
2017,09,02,13,48,25.30
2017,09,02,13,49,25.20
2017,09,02,13,50,25.20
2017,09,02,13,51,25.20
2017,09,02,13,52,25.30
2017,09,02,13,53,25.30
2017,09,02,13,54,25.30
2017,09,02,13,55,25.10
2017,09,02,13,56,24.90
2017,09,02,13,57,24.80
2017,09,02,13,58,24.70
2017,09,02,13,59,24.70
2017,09,02,14,00,24.70
2017,09,02,14,01,24.80
2017,09,02,14,02,24.90
2017,09,02,14,03,25.10
2017,09,02,14,04,25.20
2017,09,02,14,05,25.30
2017,09,02,14,06,25.40
2017,09,02,14,07,25.40
2017,09,02,14,08,25.50
2017,09,02,14,09,25.50
2017,09,02,14,10,25.60
2017,09,02,14,11,25.60
2017,09,02,14,12,25.60
2017,09,02,14,13,25.70
2017,09,02,14,14,25.70
2017,09,02,14,15,25.80
2017,09,02,14,16,25.80
2017,09,02,14,17,25.90
2017,09,02,14,18,25.90
2017,09,02,14,19,26.00
2017,09,02,14,20,26.00
2017,09,02,14,21,26.10
2017,09,02,14,22,26.20
2017,09,02,14,23,26.20
2017,09,02,14,24,26.30
2017,09,02,14,25,26.30
2017,09,02,14,26,26.40
2017,09,02,14,27,26.40
2017,09,02,14,28,26.40
2017,09,02,14,29,26.20
2017,09,02,14,30,26.20
2017,09,02,14,31,26.10
2017,09,02,14,32,26.10
2017,09,02,14,33,26.20
2017,09,02,14,34,26.30
2017,09,02,14,35,26.40
2017,09,02,14,36,26.40
2017,09,02,14,37,26.50
2017,09,02,14,38,26.50
2017,09,02,14,39,26.50
2017,09,02,14,40,26.40
2017,09,02,14,41,26.30
2017,09,02,14,42,26.20
2017,09,02,14,43,26.10
2017,09,02,14,44,26.00
2017,09,02,14,45,25.90
2017,09,02,14,46,25.80
2017,09,02,14,47,25.70
2017,09,02,14,48,25.70
2017,09,02,14,49,25.70
2017,09,02,14,50,25.80
2017,09,02,14,51,25.80
2017,09,02,14,52,25.80
2017,09,02,14,53,25.90
2017,09,02,14,54,26.00
2017,09,02,14,55,26.00
2017,09,02,14,56,26.10
2017,09,02,14,57,26.20
2017,09,02,14,58,26.10
2017,09,02,14,59,26.10
2017,09,02,15,00,26.00
2017,09,02,15,01,26.00
2017,09,02,15,02,26.00
2017,09,02,15,03,26.00
2017,09,02,15,04,26.10
2017,09,02,15,05,26.10
2017,09,02,15,06,26.10
2017,09,02,15,07,26.10
2017,09,02,15,08,26.10
2017,09,02,15,09,26.10
2017,09,02,15,10,26.10
2017,09,02,15,11,26.10
2017,09,02,15,12,26.20
2017,09,02,15,13,26.30
2017,09,02,15,14,26.30
2017,09,02,15,15,26.40
2017,09,02,15,16,26.40
2017,09,02,15,17,26.40
2017,09,02,15,18,26.40
2017,09,02,15,19,26.40
2017,09,02,15,20,26.40
2017,09,02,15,21,26.40
2017,09,02,15,22,26.40
2017,09,02,15,23,26.40
2017,09,02,15,24,26.40
2017,09,02,15,25,26.50
2017,09,02,15,26,26.50
2017,09,02,15,27,26.50
2017,09,02,15,28,26.50
2017,09,02,15,29,26.50
2017,09,02,15,30,26.40
2017,09,02,15,31,26.30
2017,09,02,15,32,26.30
2017,09,02,15,33,26.30
2017,09,02,15,34,26.30
2017,09,02,15,35,26.20
2017,09,02,15,36,26.20
2017,09,02,15,37,26.20
2017,09,02,15,38,26.10
2017,09,02,15,39,26.10
2017,09,02,15,40,26.10
2017,09,02,15,41,26.10
2017,09,02,15,42,26.10
2017,09,02,15,43,26.20
2017,09,02,15,44,26.30
2017,09,02,15,45,26.40
2017,09,02,15,46,26.40
2017,09,02,15,47,26.50
2017,09,02,15,48,26.50
2017,09,02,15,49,26.50
2017,09,02,15,50,26.40
2017,09,02,15,51,26.40
2017,09,02,15,52,26.30
2017,09,02,15,53,26.20
2017,09,02,15,54,26.00
2017,09,02,15,55,25.80
2017,09,02,15,56,25.60
2017,09,02,15,57,25.50
2017,09,02,15,58,25.40
2017,09,02,15,59,25.30
2017,09,02,16,00,25.10
2017,09,02,16,01,24.80
2017,09,02,16,02,24.70
2017,09,02,16,03,24.50
2017,09,02,16,04,24.40
2017,09,02,16,05,24.30
2017,09,02,16,06,24.30
2017,09,02,16,07,24.20
2017,09,02,16,08,24.20
2017,09,02,16,09,24.30
2017,09,02,16,10,24.30
2017,09,02,16,11,24.50
2017,09,02,16,12,24.60
2017,09,02,16,13,24.80
2017,09,02,16,14,24.90
2017,09,02,16,15,25.00
2017,09,02,16,16,25.10
2017,09,02,16,17,25.20
2017,09,02,16,18,25.20
2017,09,02,16,19,25.30
2017,09,02,16,20,25.30
2017,09,02,16,21,25.30
2017,09,02,16,22,25.10
2017,09,02,16,23,25.00
2017,09,02,16,24,24.90
2017,09,02,16,25,24.90
2017,09,02,16,26,25.00
2017,09,02,16,27,25.00
2017,09,02,16,28,25.10
2017,09,02,16,29,25.20
2017,09,02,16,30,25.30
2017,09,02,16,31,25.40
2017,09,02,16,32,25.60
2017,09,02,16,33,25.70
2017,09,02,16,34,25.80
2017,09,02,16,35,25.90
2017,09,02,16,36,25.90
2017,09,02,16,37,26.00
2017,09,02,16,38,26.00
2017,09,02,16,39,25.90
2017,09,02,16,40,25.90
2017,09,02,16,41,25.90
2017,09,02,16,42,25.90
2017,09,02,16,43,25.80
2017,09,02,16,44,25.80
2017,09,02,16,45,25.70
2017,09,02,16,46,25.60
2017,09,02,16,47,25.50
2017,09,02,16,48,25.40
2017,09,02,16,49,25.20
2017,09,02,16,50,25.00
2017,09,02,16,51,24.90
2017,09,02,16,52,24.80
2017,09,02,16,53,24.70
2017,09,02,16,54,24.60
2017,09,02,16,55,24.60
2017,09,02,16,56,24.60
2017,09,02,16,57,24.60
2017,09,02,16,58,24.70
2017,09,02,16,59,24.70
2017,09,02,17,00,24.70
2017,09,02,17,01,24.60
2017,09,02,17,02,24.60
2017,09,02,17,03,24.60
2017,09,02,17,04,24.60
2017,09,02,17,05,24.60
2017,09,02,17,06,24.50
2017,09,02,17,07,24.50
2017,09,02,17,08,24.50
2017,09,02,17,09,24.40
2017,09,02,17,10,24.40
2017,09,02,17,11,24.30
2017,09,02,17,12,24.30
2017,09,02,17,13,24.30
2017,09,02,17,14,24.30
2017,09,02,17,15,24.30
2017,09,02,17,16,24.30
2017,09,02,17,17,24.40
2017,09,02,17,18,24.40
2017,09,02,17,19,24.50